Volver al catálogo

STARLINK-32128

ActivoComunicacionesVLEO
NORAD 60272·PAYLOAD·🇺🇸 United States

Lanzado Jul 27, 2024 desde Cape Canaveral Space Force Station

Loading…

Próximos Pases (próximas 24 horas)

TLE

ActualizadoSource: CelesTrak SupGP

Época: Sep 14, 2026, 20:43 UTC

1 60272C 24131T   26257.86368056  .00050037  00000+0  14789-2 0  2574
2 60272  53.1580 252.0233 0001286  86.3345   4.6008 15.34354663    13

Sigue STARLINK-32128 en tiempo real con AllMySat

Download on the App Store